Welcome to Boston ARTCC, where excellence is served daily with a cup of MOCHA HAGoTDI


Whether you are a pilot, controller, or a little of both; ZBW is the premier airspace in VATSIM

News

Cross the Pond 2014 Eastbound - Pilot Briefing

ATTENTION ALL PILOTS:

The Cross the Pond 2014 Eastbound Pilot Briefing for pilots departing from Boston Logan Intl Airport (KBOS) is now available and is attached to this post in the vZBW forum. It can also be accessed on the Cross the Pond website under the pilot area.

Don't be afraid to contact us with any questions, comments, concerns, or suggestions. Most importantly, see you on the 25th!

2 weeks ago

ZBW Website NOTAM

Attention ZBW Controllers (and TS3 visitors):


Please update your settings to reflect the host as "bostonartcc.net" instead of "ts3.bostonartcc.net". Due to what appears to be local DNS caching issues, the old ts3 subdomain will no longer respond.


Please note that all email addresses are the same post-migration, however you may also elect to contact staff members through the roster.


Student Controllers

Please use the training center to request training sessions. This will provide a direct link for staff members to more easily monitor and manage training sessions.

3 weeks ago

ATC Online

Controller Position Frequency Sign-On
No controllers currently online.

Air Traffic

Inbound: 5 Outbound: 5 View All

BAW21G EGLL CPT1A CPT UL9 ... J573 ENE OOSHN2 Alex Law EGSS
H/B744 KBOS 36000 ETE: under 1 hour
JBU2170 KFLL ARKES1 ARKES ZAPPA2 ... KRANN3 JFK KRANN3 GIDEON CULPEPPER-KFLL
T/A320/F KBOS 340 ETE: 3 hours
MET106 LEMD ZMR UL155 ADORO ... TUSKY ENE OOSHN2 Alex Bresnick 9B1
T/B752/F KBOS 34000 ETE: under 1 hour
SWA1679 KDEN EEONS3 WYNDM HCT ... J82 ALB QUABN2 Evan Beaton CYYZ
B737/L KBOS 39000 ETE: 3 hours
CFA702 KORD DUFEE ELX HAAKK ... J82 WILET STELA1 Daniel Katz KCLE
B722/L KBDL 31000 ETE: 1 hours

Weather parsed

KBOS 252354Z 25010KT 10SM FEW080 BKN300 16/07 A2958 RMK AO2 SLP017 T01560067 10178 20156 58001

KMHT 252353Z 21004KT 10SM OVC070 14/06 A2955 RMK AO2 SLP021 T01440061 10183 20144 58002

KBDL 252351Z 18006KT 10SM SCT070 OVC100 16/06 A2958 RMK AO2 SLP016 T01560056 10200 20156 58010

KPVD 252351Z 24004KT 10SM FEW100 BKN300 13/07 A2962 RMK AO2 SLP030 T01330072 10189 20122 56000